Regional Weather Roundup
Issued by NWS

Home | Current Version | Previous Version | Graphics & Text | Print | Product List | Glossary On
Versions: 1 2 3 4 5 6 7 8 9 10 11 12 13 14 15 16 17 18 19 20 21 22 23 24 25 26 27 28 29 30 31 32 33 34 35 36 37 38 39 40 41 42 43 44 45 46 47 48 49 50
000
ASUS43 KIND 251209
RWRIN

WEATHER ROUNDUP FOR INDIANA
NATIONAL WEATHER SERVICE INDIANAPOLIS IN
700 AM EST SUN FEB 25 2018

NOTE: "FAIR" INDICATES FEW OR NO CLOUDS BELOW 12,000 FEET WITH NO
SIGNIFICANT WEATHER AND/OR OBSTRUCTIONS TO VISIBILITY.

* - STATION DOES NOT REPORT WEATHER SUCH AS PRECIPITATION OR FOG.

+ - STATION NOT QUALITY CONTROLLED BY THE NATIONAL WEATHER SERVICE.
    USE DATA WITH CAUTION...ESPECIALLY DEWPOINT AND RELATIVE
    HUMIDITY OBSERVATIONS.

INZ001>003-010>013-019-020-251300-
NORTHWEST INDIANA

CITY           SKY/WX    TMP DP  RH WIND       PRES   REMARKS
GARY /AIRPORT/ CLOUDY    36  25  64 W39G54    29.80R WCI  21
LA PORTE +     CLOUDY    34  29  82 W17       29.79R WCI  24
6HR MIN TEMP:  34; 6HR MAX TEMP:  52; 6HR PCP:  0.01;

MICHIGAN CITY+ CLOUDY    34  28  80 SW15G23   29.79R WCI  24
RENSSELAER +   CLOUDY    34  27  75 W24G35    29.85R WCI  21
VALPARAISO     CLOUDY    36  28  73 SW21G32   29.80R WCI  25
6HR MIN TEMP:  36; 6HR MAX TEMP:  55; 6HR PCP:  0.03;


$$

LMZ046-743>745-251300-
SOUTHERN LAKE MICHIGAN

STATION/POSITION TIME  TEMP    WIND        PRES    WAVE
                       AIR SEA DIR/SP/G            HT
                 (UTC) (F)     (DEG/KT/KT) (MB)    (FT)
BURNS HARBOR     1140   35     250/ 25/ 34 1009.1R
MICHIGAN CITY    1140   34     230/ 42/ 48   N/A

$$

INZ004-005-014>016-021>024-251300-
NORTH CENTRAL INDIANA

CITY           SKY/WX    TMP DP  RH WIND       PRES   REMARKS
GOSHEN         CLOUDY    36  29  75 W18G36    29.77R WCI  26
6HR MIN TEMP:  36; 6HR MAX TEMP:  54; 6HR PCP:  0.01;

LOGANSPORT +   CLOUDY    34  30  86 W24G30    29.86R WCI  21
PERU/GRISSOM   CLOUDY    36  36  99 SW18G24   29.84R WCI  26
6HR MIN TEMP:  36; 6HR MAX TEMP:  56; 6HR PCP:  0.03;

ROCHESTER +    MOCLDY    37  32  81 W18G29    29.83R WCI  27
SOUTH BEND     CLOUDY    34  28  79 W18G29    29.77R WCI  23
6HR MIN TEMP:  34; 6HR MAX TEMP:  52; 6HR PCP:  0.02;

WARSAW +       CLOUDY    34  30  86 W22G31    29.80R WCI  22

$$

INZ006>009-017-018-025>027-251300-
NORTHEAST INDIANA

CITY           SKY/WX    TMP DP  RH WIND       PRES   REMARKS
AUBURN +       MOCLDY    36  32  87 W15G24    29.79R WCI  26
FORT WAYNE     CLOUDY    40  35  83 W23       29.81R WCI  30
6HR MIN TEMP:  40; 6HR MAX TEMP:  57; 6HR PCP:  0.05;

HUNTINGTON +   CLOUDY    37  32  81 W20G29    29.83R WCI  27
6HR MIN TEMP:  37; 6HR MAX TEMP:  55; 6HR PCP:  0.03;

KENDALLVILLE + CLOUDY    37  32  85 W22G31    29.76R WCI  25

$$

INZ028-029-035-036-043>045-051>053-251300-
WEST CENTRAL INDIANA

CITY           SKY/WX    TMP DP  RH WIND       PRES   REMARKS
CRAWFORDSVL +  CLOUDY    34  29  82 W18G25      N/A  WCI  23
6HR MIN TEMP:  34; 6HR MAX TEMP:  55; 6HR PCP:  0.02;

GREENCASTLE +  FAIR      36  30  80 W8        29.92S WCI  29
LAFAYETTE      CLOUDY    35  30  82 W14G24    29.89R WCI  26
6HR MIN TEMP:  35; 6HR MAX TEMP:  56; 6HR PCP:  0.01;

TERRE HAUTE    FAIR      37  31  78 W12       29.95R WCI  29
6HR MIN TEMP:  37; 6HR MAX TEMP:  59; 6HR PCP:  0.01;


$$

INZ030>032-037>040-046>048-054>057-064-065-251300-
CENTRAL INDIANA

CITY           SKY/WX    TMP DP  RH WIND       PRES   REMARKS
COLUMBUS       MOCLDY    43 N/A N/A W14       29.92
FISHERS *+     CLOUDY    37  36  93 W13G20    29.90R WCI  29
FRANKFORT +    CLOUDY    38  33  81 W20       29.90R WCI  28
6HR MIN TEMP:  38; 6HR MAX TEMP:  59; 6HR PCP:  0.02;

GREENWOOD *+   FAIR      37 -49   2 W15G25    29.90R WCI  28
6HR MIN TEMP:  37; 6HR MAX TEMP:  56;

INDIANAPOLIS   CLOUDY    38  31  76 W20G30    29.91R WCI  28
6HR MIN TEMP:  38; 6HR MAX TEMP:  57; 6HR PCP:  0.01;

-EAGLE CREEK   CLOUDY    40  32  73 W12G22    29.89R WCI  33
6HR MIN TEMP:  40; 6HR MAX TEMP:  59; 6HR PCP:  0.02;

KOKOMO +       CLOUDY    37  32  82 W21G28    29.87R WCI  26
6HR MIN TEMP:  37; 6HR MAX TEMP:  56; 6HR PCP:  0.02;

MARION +       CLOUDY    38  33  82 W24       29.87R WCI  26
MT COMFORT *+  CLOUDY    39  37  93 W20G26    29.90R WCI  30
SHELBYVILLE    FAIR      42  33  70 W17G24    29.90R
6HR MIN TEMP:  42; 6HR MAX TEMP:  59; 6HR PCP:  0.03;

ZIONSVILLE +   MOCLDY    35  31  85 W14G25    29.90R WCI  26
6HR MIN TEMP:  35; 6HR MAX TEMP:  56; 6HR PCP:  0.03;


$$

INZ033-034-041-042-049-050-058-059-251300-
EAST CENTRAL INDIANA

CITY           SKY/WX    TMP DP  RH WIND       PRES   REMARKS
MUNCIE         CLOUDY    41  35  79 W18       29.86R
6HR MIN TEMP:  41; 6HR MAX TEMP:  59; 6HR PCP:  0.04;

RICHMOND +     FAIR      41  37  87 W18G24    29.87R

$$

INZ060-061-067>069-081>083-085>088-251300-
SOUTHWEST INDIANA

CITY           SKY/WX    TMP DP  RH WIND       PRES   REMARKS
EVANSVILLE     FAIR      43  37  79 W6        30.02R
6HR MIN TEMP:  43; 6HR MAX TEMP:  62;

HUNTINGBURG +  FAIR      42  33  70 W15       30.01R
6HR MIN TEMP:  42; 6HR MAX TEMP:  61; 6HR PCP:  0.01;

WASHINGTON +   FAIR      40  32  74 W13       29.99R WCI  32
6HR MIN TEMP:  40; 6HR MAX TEMP:  60;


$$

INZ062-063-066-070>080-084-089>092-251300-
SOUTH CENTRAL AND SOUTHEAST INDIANA

CITY           SKY/WX    TMP DP  RH WIND       PRES   REMARKS
BATESVILLE +   CLEAR     45  39  81 MISG      29.89R
BEDFORD +      FAIR      43  34  70 W13G18    29.94R
BLOOMINGTON    FAIR      40  32  73 W9        29.94R WCI  34
6HR MIN TEMP:  40; 6HR MAX TEMP:  59; 6HR PCP:  0.01;

FRENCH LICK *+ FAIR      41  32  70 W13G22    29.98R
MADISON *+     FAIR      45  36  70 W9        29.95R
NORTH VERNON + FAIR      43  36  75 W9        29.92R
SEYMOUR +      FAIR      45  37  76 W13       29.95R

$$





USA.gov is the U.S. government's official web portal to all federal, state and local government web resources and services.